User: anonymous   Login
Location: Maiden_LMO
(35.5760°N, 81.2120°W)
Time: 12:19:38
(UTC-04:00)
Language:

Cosmos 2278 Rocket - Orbit

View from above orbital plane
View from above orbital plane
View from above satellite
View from above satellite

Ground track
Ground track

The orbit data is extracted from the following two-line orbital elements,

1 23088U 94023B   15149.17681177 -.00000224  00000-0 -91823-4 0  9994
2 23088 071.0016 056.1899 0003269 203.4848 156.6126 14.14621514 89479
Epoch (UTC): 29 May 2015 04:14:36
Eccentricity: 0.0003269
inclination: 71.0016°
perigee height: 841 km
apogee height: 846 km
right ascension of ascending node: 56.1899°
argument of perigee: 203.4848°
revolutions per day: 14.14621514
mean anomaly at epoch: 156.6126°
orbit number at epoch: 8947

The dashed part of the orbit path shows where the satellite is in the earth's shadow,  

DLR